Regional Weather Roundup
Issued by NWS Columbia, SC

Home | Current Version | Previous Version | Text Only | Print | Product List | Glossary On
Versions: 1 2 3 4 5 6 7 8 9 10 11 12 13 14 15 16 17 18 19 20 21 22 23 24 25 26 27 28 29 30 31 32 33 34 35 36 37 38 39 40 41 42 43 44 45 46 47 48 49 50
000
ASUS42 KCAE 190310
RWRCAE
REGIONAL WEATHER ROUNDUP
NATIONAL WEATHER SERVICE COLUMBIA SC
1100 PM EDT SAT APR 18 2015

NOTE: "FAIR" INDICATES FEW OR NO CLOUDS BELOW 12,000 FEET WITH NO
SIGNIFICANT WEATHER AND/OR OBSTRUCTIONS TO VISIBILITY.

NOT ALL STATIONS ARE QUALITY CONTROLLED BY THE NATIONAL
WEATHER SERVICE. USE DATA WITH CAUTION...ESPECIALLY
DEWPOINT OBSERVATIONS.

SCZ001>056-GAZ040-063>065-077-190400-
...UPSTATE SOUTH CAROLINA...

CITY           SKY/WX    TMP DP  RH WIND       PRES   REMARKS
ANDERSON       MOCLDY    65  62  90 NE5       29.98S
LIBERTY        MOCLDY    66  64  91 E3        29.98F
SPARTANBURG    CLOUDY    66  66 100 CALM      29.99F
CLEMSON        MOCLDY    67  62  84 CALM      29.99F
GREENVILLE     CLOUDY    67  61  81 CALM      30.00F
GREENWOOD      CLOUDY    66  65  96 NE3       29.99F
GREER          CLOUDY    63  62  97 SE3       29.98F
ROCK HILL      CLOUDY    66  65  96 CALM      30.01R
CHESTER        CLOUDY    68  66  94 CALM      30.01S
LAURENS        CLOUDY    66  66 100 CALM      29.99S


...CENTRAL SOUTH CAROLINA...

CITY           SKY/WX    TMP DP  RH WIND       PRES   REMARKS
COLUMBIA APT   CLOUDY    70  66  87 CALM      29.98R
COLUMBIA OWENS CLOUDY    69  66  90 CALM      29.99R
DARLINGTON     CLOUDY    70  64  83 SE5       30.01R
FLORENCE       CLOUDY    69  64  84 S5        29.99R
MCENTIRE ANGB  MOCLDY    68  67  96 SE5       29.99R
ORANGEBURG     CLOUDY    68  66  93 SE5       29.99R
SUMTER SHAW    CLOUDY    69  67  92 SE7       29.97R
NEWBERRY       CLOUDY    66  66 100 NE5       30.02R
AIKEN            N/A     52  52 100 CALM      30.02R FOG
BARNWELL       CLOUDY    70  70 100 SE8       29.99R
MANNING        RAIN      66  59  77 CALM      29.99R
CAMDEN         CLOUDY    70  68  94 CALM      30.00R
LANCASTER      CLOUDY    66  66 100 NE3       30.00R FOG
WINNSBORO      CLOUDY    66  66 100 CALM      30.00R


...EASTERN AND COASTAL SOUTH CAROLINA...

CITY           SKY/WX    TMP DP  RH WIND       PRES   REMARKS
N MYRTLE BCH   CLOUDY    65  64  97 CALM      29.98S
CONWAY         FAIR      64  64 100 CALM      29.99S
MARION         FAIR      68  64  88 CALM      30.00S
HARTSVILLE     CLOUDY    68  64  88 S6        30.01R
FLORENCE       CLOUDY    69  64  84 S5        29.99R
DARLINGTON     CLOUDY    70  64  83 SE5       30.01R
CHARLESTON APT MOCLDY    68  65  90 SE6       29.99S
MOUNT PLEASANT CLOUDY    66  66 100 CALM      30.00R
WALTERBORO     CLOUDY    64  64 100 SE5       30.00R
BEAUFORT       MOCLDY    70  68  93 CALM      29.98S


...EASTERN GEORGIA...

CITY           SKY/WX    TMP DP  RH WIND       PRES   REMARKS
AUGUSTA BUSH F FOG       63  63 100 CALM      29.97R VSB 1/2
AUGUSTA DANIEL FAIR      69  66  90 E6        29.98R
THOMSON        CLOUDY    66  66 100 CALM      30.02R
WASHINGTON     FAIR      66  66 100 CALM      29.97S FOG
CLAXTON        FAIR      72  70  94 CALM      29.97S
SYLVANIA       CLOUDY    70  69  96 SE3       29.99S
STATESBORO       N/A     71  71 100 CALM      29.98R
SAVANNAH       CLOUDY    69  67  93 S5        29.98S


...SOUTHERN NORTH CAROLINA...

CITY           SKY/WX    TMP DP  RH WIND       PRES   REMARKS
CHARLOTTE      CLOUDY    68  62  81 S5        30.01R
MONROE         CLOUDY    66  63  90 CALM      30.00R
WADESBORO      CLOUDY    67  66  96 CALM      30.00R
ROCKINGHAM     CLOUDY    66  64  93 CALM      30.00R
RUTHERFORDTON  CLOUDY    64  64 100 NW3       30.02S
ASHEVILLE      MOCLDY    62  60  93 CALM      30.03F

$$



USA.gov is the U.S. government's official web portal to all federal, state and local government web resources and services.